Regional Weather Roundup
Issued by NWS

Home | Current Version | Previous Version | Text Only | Print | Product List | Glossary Off
Versions: 1 2 3 4 5 6 7 8 9 10 11 12 13 14 15 16 17 18 19 20 21 22 23 24 25 26 27 28 29 30 31 32 33 34 35 36 37 38 39 40 41 42 43 44 45 46 47 48 49 50

000
ASUS45 KCYS 310710
RWRWY

WYOMING REGIONAL WEATHER ROUNDUP
NATIONAL WEATHER SERVICE CHEYENNE WY
1200 AM MST SAT JAN 31 2015

NOTE:  "FAIR" INDICATES FEW OR NO CLOUDS BELOW 12,000 FEET
WITH NO SIGNIFICANT WEATHER AND/OR OBSTRUCTIONS TO VISIBILITY.

WYZ001-310800-
YELLOWSTONE NATIONAL PARK

CITY           SKY/WX    TMP DP  RH WIND       PRES   REMARKS
LK YELLOWSTONE   N/A      3  -1  83 CALM      30.11S
W YELLOWSTONE  NOT AVBL

$$
WYZ002>013-054>058-071-098>099-310800-
NORTHERN WYOMING

CITY           SKY/WX    TMP DP  RH WIND       PRES   REMARKS
JACKSON        FAIR      10   9  92 N10       30.09S WCI  -3
CODY           FAIR      28  19  69 S6        30.03F WCI  22
GREYBULL       FOG       25  24  96 CALM      30.08F VSB 1/4
WORLAND        FAIR      21  20  96 S3        30.07F
SHERIDAN       FAIR      25  20  81 CALM      30.02F
BUFFALO        FAIR      35  17  47 S15       30.02F WCI  25
GILLETTE       FAIR      28  23  81 S7        30.04F WCI  21
HULETT           N/A    N/A N/A N/A MISG        N/A
NEWCASTLE      FAIR      32  25  74 CALM      30.08F

$$
WYZ014>020-022>026-101>103-310800-
CENTRAL WYOMING

CITY           SKY/WX    TMP DP  RH WIND       PRES   REMARKS
BIG PINEY      CLOUDY    27  23  85 W6        30.05F WCI  20
PINEDALE       CLOUDY    25  21  86 W6        30.05F WCI  18
DUBOIS         FAIR      27  18  69 NW9       30.05F WCI  17
LANDER         MOCLDY    32  25  75 CALM      30.05F
RIVERTON       FAIR      31  27  85 SW5       30.07F WCI  26
CASPER         FAIR      29  24  82 N7        30.06F WCI  22
DOUGLAS        FAIR      28  24  85 CALM      30.07F

$$
WYZ021-027>030-104>119-310800-
SOUTHERN WYOMING

CITY           SKY/WX    TMP DP  RH WIND       PRES   REMARKS
EVANSTON       CLOUDY    31  27  85 NE10      30.01F WCI  22
KEMMERER       FLURRIES  30  28  93 N7        30.03F WCI  23
FORT BRIDGER   LGT SNOW  31  31 100 NE8       30.04F WCI  23
ROCK SPRINGS   LGT SNOW  28  25  88 NE12      30.02F FOG     WCI  18
DIXON          CLOUDY    34  32  93 CALM      29.97F
RAWLINS        CLOUDY    32  23  69 NE15      30.02R WCI  22
SARATOGA       CLOUDY    32  30  93 W3        29.99F
LARAMIE        CLOUDY    28  22  78 CALM      30.01F
CHEYENNE       CLOUDY    32  23  69 NW6       30.03S WCI  26
TORRINGTON     FAIR      35  24  64 N5        30.05F WCI  31
PINE BLUFFS    CLOUDY    32  27  80 CALM      30.03F

$$



USA.gov is the U.S. government's official web portal to all federal, state and local government web resources and services.